WZZ8PS LFMN-LHBP

Flight info

Callsign WZZ8PS
Flight time 1h 24m
Altitude 36000
Route BASIP DCT ANAKI DCT EKPAL/N0429F370 DCT BARPI DCT MAGAM DCT KOPRY DCT ULZAK
Aircraft A320/M-SDE1E2E3FGIJ1J4RWXY/LB1

Departure

Time 2026-05-07 06:49
Airport Nice-Côte d'Azur Airport (LFMN)

Arrival

Time 2026-05-07 08:13
Airport Budapest Liszt Ferenc International Airport (LHBP)
Time Latitude Longitude Altitude Speed Heading
2026-05-07 06:23 43.66132 7.20939 22 ft 0 kts 262°
2026-05-07 06:39 43.66133 7.20940 22 ft 1 kts 262°
2026-05-07 06:39 43.66137 7.20973 22 ft 4 kts 254°
2026-05-07 06:40 43.66146 7.21007 24 ft 4 kts 233°
2026-05-07 06:40 43.66164 7.21025 25 ft 2 kts 172°
2026-05-07 06:40 43.66166 7.21025 25 ft 0 kts 171°
2026-05-07 06:44 43.66132 7.21033 22 ft 10 kts 171°
2026-05-07 06:44 43.66043 7.21053 22 ft 14 kts 171°
2026-05-07 06:44 43.65959 7.21090 22 ft 12 kts 153°
2026-05-07 06:44 43.65879 7.21046 22 ft 15 kts 224°
2026-05-07 06:45 43.65799 7.20936 22 ft 18 kts 225°
2026-05-07 06:45 43.65720 7.20885 24 ft 12 kts 175°
2026-05-07 06:45 43.65627 7.20906 22 ft 15 kts 171°
2026-05-07 06:45 43.65516 7.20931 23 ft 18 kts 171°
2026-05-07 06:46 43.65393 7.20958 22 ft 17 kts 172°
2026-05-07 06:46 43.65311 7.20902 22 ft 15 kts 225°
2026-05-07 06:46 43.65230 7.20792 22 ft 18 kts 225°
2026-05-07 06:46 43.65134 7.20660 22 ft 21 kts 225°
2026-05-07 06:47 43.65044 7.20536 22 ft 17 kts 225°
2026-05-07 06:47 43.64960 7.20419 22 ft 17 kts 225°
2026-05-07 06:47 43.64870 7.20296 22 ft 19 kts 225°
2026-05-07 06:47 43.64794 7.20196 22 ft 13 kts 214°
2026-05-07 06:48 43.64718 7.20206 22 ft 12 kts 147°
2026-05-07 06:48 43.64699 7.20283 22 ft 6 kts 68°
2026-05-07 06:48 43.64738 7.20339 22 ft 13 kts 43°
2026-05-07 06:48 43.64979 7.20673 22 ft 87 kts 45°
2026-05-07 06:49 43.65557 7.21464 27 ft 143 kts 45°
2026-05-07 06:49 43.66350 7.22569 321 ft 165 kts 45°
2026-05-07 06:49 43.66907 7.23938 1128 ft 165 kts 77°
2026-05-07 06:49 43.66869 7.25570 1660 ft 181 kts 108°
2026-05-07 06:50 43.66152 7.27078 2090 ft 198 kts 134°
2026-05-07 06:50 43.65169 7.28506 2513 ft 215 kts 134°
2026-05-07 06:50 43.64130 7.30043 3108 ft 223 kts 131°
2026-05-07 06:50 43.63461 7.31971 3847 ft 227 kts 98°
2026-05-07 06:51 43.63611 7.34147 4651 ft 232 kts 69°
2026-05-07 06:51 43.64201 7.36243 5510 ft 236 kts 68°
2026-05-07 06:51 43.64773 7.38398 6358 ft 241 kts 69°
2026-05-07 06:51 43.65341 7.40606 7164 ft 246 kts 69°
2026-05-07 06:52 43.65915 7.42857 7998 ft 250 kts 69°
2026-05-07 06:52 43.66498 7.45147 8843 ft 255 kts 69°
2026-05-07 06:52 43.67094 7.47471 9688 ft 259 kts 69°
2026-05-07 06:52 43.67707 7.49848 10386 ft 270 kts 69°
2026-05-07 06:53 43.68370 7.52359 10737 ft 293 kts 68°
2026-05-07 06:53 43.69108 7.55117 11075 ft 317 kts 68°
2026-05-07 06:53 43.69904 7.58084 11381 ft 340 kts 69°
2026-05-07 06:53 43.70740 7.61221 11957 ft 351 kts 69°
2026-05-07 06:54 43.71588 7.64420 12711 ft 357 kts 69°
2026-05-07 06:54 43.72444 7.67662 13496 ft 361 kts 69°
2026-05-07 06:54 43.73433 7.70868 14195 ft 364 kts 59°
2026-05-07 06:54 43.74908 7.73719 14872 ft 365 kts 46°
2026-05-07 06:55 43.76611 7.76355 15558 ft 369 kts 46°
2026-05-07 06:55 43.78329 7.79024 16230 ft 372 kts 46°
2026-05-07 06:55 43.80036 7.81689 16902 ft 376 kts 46°
2026-05-07 06:55 43.81773 7.84419 17582 ft 380 kts 46°
2026-05-07 06:56 43.83527 7.87179 18254 ft 384 kts 46°
2026-05-07 06:56 43.85298 7.89970 18841 ft 388 kts 46°
2026-05-07 06:56 43.87092 7.92802 19417 ft 393 kts 46°
2026-05-07 06:56 43.88882 7.95714 19957 ft 400 kts 50°
2026-05-07 06:57 43.90403 7.98992 20499 ft 407 kts 58°
2026-05-07 06:57 43.91807 8.02426 21020 ft 412 kts 59°
2026-05-07 06:57 43.93224 8.05910 21519 ft 417 kts 59°
2026-05-07 06:57 43.94662 8.09450 22018 ft 422 kts 58°
2026-05-07 06:58 43.96112 8.13020 22512 ft 426 kts 59°
2026-05-07 06:58 43.97560 8.16588 23001 ft 431 kts 59°
2026-05-07 06:58 43.99045 8.20234 23499 ft 436 kts 59°
2026-05-07 06:58 44.00545 8.23920 23919 ft 440 kts 59°
2026-05-07 06:59 44.02055 8.27639 24353 ft 444 kts 59°
2026-05-07 06:59 44.03578 8.31396 24775 ft 448 kts 59°
2026-05-07 06:59 44.05112 8.35184 25187 ft 452 kts 59°
2026-05-07 06:59 44.06663 8.39019 25608 ft 456 kts 59°
2026-05-07 07:00 44.08227 8.42897 26027 ft 459 kts 59°
2026-05-07 07:00 44.09777 8.46751 26446 ft 463 kts 59°
2026-05-07 07:00 44.11358 8.50682 26869 ft 466 kts 59°
2026-05-07 07:00 44.12950 8.54641 27284 ft 470 kts 59°
2026-05-07 07:01 44.14556 8.58638 27691 ft 473 kts 60°
2026-05-07 07:01 44.16172 8.62666 28093 ft 477 kts 60°
2026-05-07 07:01 44.17771 8.66667 28488 ft 480 kts 60°
2026-05-07 07:01 44.19376 8.70788 28872 ft 484 kts 64°
2026-05-07 07:02 44.20638 8.75162 29257 ft 488 kts 73°
2026-05-07 07:02 44.21262 8.78182 29514 ft 490 kts 76°
2026-05-07 07:02 44.22182 8.82772 29913 ft 493 kts 76°
2026-05-07 07:02 44.23120 8.87406 30271 ft 497 kts 75°
2026-05-07 07:03 44.24069 8.92069 30657 ft 499 kts 75°
2026-05-07 07:03 44.25019 8.96734 31031 ft 501 kts 75°
2026-05-07 07:03 44.25972 9.01427 31417 ft 503 kts 76°
2026-05-07 07:03 44.26924 9.06140 31801 ft 505 kts 76°
2026-05-07 07:04 44.27857 9.10790 32315 ft 503 kts 76°
2026-05-07 07:04 44.28794 9.15483 32872 ft 501 kts 76°
2026-05-07 07:04 44.29726 9.20162 33415 ft 499 kts 76°
2026-05-07 07:04 44.30655 9.24835 33976 ft 497 kts 76°
2026-05-07 07:05 44.31579 9.29488 34423 ft 496 kts 76°
2026-05-07 07:05 44.32501 9.34136 34846 ft 495 kts 76°
2026-05-07 07:05 44.33421 9.38778 35270 ft 494 kts 76°
2026-05-07 07:05 44.34322 9.43345 35690 ft 493 kts 76°
2026-05-07 07:06 44.35234 9.47987 35943 ft 494 kts 76°
2026-05-07 07:06 44.36141 9.52601 35996 ft 490 kts 76°
2026-05-07 07:06 44.37934 9.61751 35999 ft 486 kts 76°
2026-05-07 07:07 44.39706 9.70836 36005 ft 486 kts 76°
2026-05-07 07:07 44.41478 9.79982 36002 ft 486 kts 77°
2026-05-07 07:08 44.43242 9.89132 36001 ft 486 kts 77°
2026-05-07 07:08 44.44991 9.98238 36003 ft 487 kts 77°
2026-05-07 07:09 44.45870 10.02851 36229 ft 490 kts 77°
2026-05-07 07:09 44.46746 10.07464 36603 ft 489 kts 76°
2026-05-07 07:09 44.47622 10.12080 36927 ft 490 kts 77°
2026-05-07 07:09 44.48630 10.16630 37003 ft 490 kts 69°
2026-05-07 07:10 44.51563 10.25259 37000 ft 489 kts 64°
2026-05-07 07:10 44.54530 10.33775 36996 ft 489 kts 64°
2026-05-07 07:11 44.57499 10.42369 37003 ft 488 kts 65°
2026-05-07 07:11 44.60460 10.50959 36986 ft 488 kts 65°
2026-05-07 07:12 44.63387 10.59481 36997 ft 487 kts 65°
2026-05-07 07:12 44.66339 10.68081 36999 ft 487 kts 65°
2026-05-07 07:13 44.69283 10.76677 36998 ft 488 kts 65°
2026-05-07 07:13 44.72221 10.85288 37001 ft 487 kts 65°
2026-05-07 07:14 44.75135 10.93854 36994 ft 487 kts 65°
2026-05-07 07:14 44.78051 11.02483 37006 ft 487 kts 65°
2026-05-07 07:15 44.80955 11.11116 37008 ft 487 kts 65°
2026-05-07 07:15 44.83861 11.19754 37007 ft 488 kts 65°
2026-05-07 07:16 44.86750 11.28344 37004 ft 488 kts 66°
2026-05-07 07:16 44.89651 11.37020 37015 ft 488 kts 66°
2026-05-07 07:17 44.92538 11.45704 37018 ft 488 kts 66°
2026-05-07 07:17 44.95425 11.54395 37010 ft 489 kts 66°
2026-05-07 07:18 44.98292 11.63049 37010 ft 489 kts 66°
2026-05-07 07:18 45.01170 11.71779 37012 ft 489 kts 66°
2026-05-07 07:19 45.04034 11.80508 37015 ft 489 kts 66°
2026-05-07 07:19 45.06899 11.89247 37009 ft 489 kts 66°
2026-05-07 07:20 45.09735 11.97925 37006 ft 488 kts 67°
2026-05-07 07:20 45.12578 12.06666 37002 ft 488 kts 67°
2026-05-07 07:21 45.15413 12.15413 36998 ft 488 kts 67°
2026-05-07 07:21 45.18231 12.24109 36996 ft 487 kts 67°
2026-05-07 07:22 45.21048 12.32854 36993 ft 487 kts 67°
2026-05-07 07:22 45.23856 12.41632 36991 ft 487 kts 67°
2026-05-07 07:23 45.26658 12.50395 36990 ft 487 kts 67°
2026-05-07 07:23 45.29446 12.59114 36989 ft 487 kts 68°
2026-05-07 07:24 45.32244 12.67894 36991 ft 487 kts 68°
2026-05-07 07:24 45.35028 12.76693 36990 ft 487 kts 68°
2026-05-07 07:25 45.39168 12.89841 36989 ft 487 kts 68°
2026-05-07 07:26 45.41939 12.98648 36988 ft 487 kts 68°
2026-05-07 07:26 45.44711 13.07473 36992 ft 487 kts 68°
2026-05-07 07:27 45.47448 13.16239 36991 ft 487 kts 68°
2026-05-07 07:27 45.50194 13.25077 36987 ft 487 kts 68°
2026-05-07 07:28 45.52926 13.33914 36984 ft 487 kts 68°
2026-05-07 07:28 45.55642 13.42718 36982 ft 487 kts 68°
2026-05-07 07:29 45.58334 13.51593 36980 ft 486 kts 72°
2026-05-07 07:29 45.60188 13.60836 36977 ft 483 kts 78°
2026-05-07 07:30 45.61910 13.70063 36981 ft 483 kts 78°
2026-05-07 07:30 45.63639 13.79353 36986 ft 483 kts 78°
2026-05-07 07:31 45.65366 13.88665 37004 ft 483 kts 78°
2026-05-07 07:31 45.67076 13.97898 37008 ft 482 kts 78°
2026-05-07 07:32 45.68774 14.07199 37012 ft 482 kts 78°
2026-05-07 07:32 45.70457 14.16458 37007 ft 482 kts 78°
2026-05-07 07:33 45.72140 14.25748 37011 ft 481 kts 79°
2026-05-07 07:33 45.73816 14.35037 37010 ft 481 kts 79°
2026-05-07 07:34 45.75478 14.44267 37007 ft 481 kts 79°
2026-05-07 07:34 45.77144 14.53566 37008 ft 481 kts 79°
2026-05-07 07:35 45.78796 14.62866 37007 ft 481 kts 79°
2026-05-07 07:35 45.80427 14.72103 37007 ft 480 kts 79°
2026-05-07 07:36 45.82065 14.81413 37007 ft 480 kts 79°
2026-05-07 07:36 45.83695 14.90715 37003 ft 480 kts 79°
2026-05-07 07:37 45.85302 14.99953 37002 ft 480 kts 79°
2026-05-07 07:37 45.86912 15.09261 36998 ft 479 kts 79°
2026-05-07 07:38 45.88514 15.18565 36997 ft 480 kts 79°
2026-05-07 07:38 45.90096 15.27815 37005 ft 480 kts 79°
2026-05-07 07:39 45.91688 15.37140 37007 ft 480 kts 79°
2026-05-07 07:39 45.93269 15.46457 37003 ft 480 kts 80°
2026-05-07 07:40 45.94843 15.55797 37007 ft 480 kts 80°
2026-05-07 07:40 45.96398 15.65071 37009 ft 480 kts 80°
2026-05-07 07:41 45.98022 15.74388 37009 ft 481 kts 77°
2026-05-07 07:41 46.00014 15.83605 37011 ft 482 kts 74°
2026-05-07 07:42 46.01785 15.91211 37009 ft 482 kts 74°
2026-05-07 07:42 46.04181 16.01908 37012 ft 482 kts 75°
2026-05-07 07:43 46.05839 16.09639 37012 ft 482 kts 76°
2026-05-07 07:43 46.07782 16.18834 37010 ft 482 kts 76°
2026-05-07 07:44 46.09740 16.28059 36642 ft 480 kts 76°
2026-05-07 07:44 46.10719 16.32664 36379 ft 480 kts 76°
2026-05-07 07:44 46.11699 16.37275 36119 ft 480 kts 76°
2026-05-07 07:44 46.12682 16.41892 35856 ft 481 kts 76°
2026-05-07 07:45 46.13651 16.46446 35608 ft 481 kts 76°
2026-05-07 07:45 46.14632 16.51065 35354 ft 480 kts 76°
2026-05-07 07:45 46.15601 16.55666 35106 ft 478 kts 77°
2026-05-07 07:45 46.16561 16.60251 34855 ft 476 kts 77°
2026-05-07 07:46 46.17521 16.64825 34611 ft 475 kts 77°
2026-05-07 07:46 46.18476 16.69379 34365 ft 473 kts 77°
2026-05-07 07:46 46.19423 16.73929 34123 ft 471 kts 77°
2026-05-07 07:46 46.20362 16.78462 33871 ft 470 kts 77°
2026-05-07 07:47 46.21299 16.82982 33599 ft 468 kts 77°
2026-05-07 07:47 46.22214 16.87417 33321 ft 465 kts 77°
2026-05-07 07:47 46.23141 16.91879 33057 ft 463 kts 75°
2026-05-07 07:48 46.25962 17.00266 32998 ft 468 kts 57°
2026-05-07 07:48 46.29691 17.07987 32996 ft 468 kts 57°
2026-05-07 07:49 46.33410 17.15719 32991 ft 468 kts 57°
2026-05-07 07:49 46.37125 17.23472 32984 ft 468 kts 57°
2026-05-07 07:50 46.40813 17.31172 32991 ft 467 kts 57°
2026-05-07 07:50 46.44511 17.38926 32991 ft 467 kts 57°
2026-05-07 07:50 46.46358 17.42817 32762 ft 466 kts 57°
2026-05-07 07:51 46.48193 17.46687 32377 ft 462 kts 57°
2026-05-07 07:51 46.50013 17.50530 31838 ft 461 kts 57°
2026-05-07 07:51 46.51806 17.54312 31328 ft 458 kts 57°
2026-05-07 07:51 46.53614 17.58120 30809 ft 456 kts 57°
2026-05-07 07:52 46.55419 17.61922 30318 ft 454 kts 57°
2026-05-07 07:52 46.57206 17.65700 29779 ft 452 kts 57°
2026-05-07 07:52 46.58979 17.69459 29298 ft 448 kts 57°
2026-05-07 07:52 46.60730 17.73182 28819 ft 444 kts 57°
2026-05-07 07:53 46.62468 17.76891 28358 ft 441 kts 57°
2026-05-07 07:53 46.64165 17.80520 27906 ft 437 kts 57°
2026-05-07 07:53 46.65869 17.84165 27449 ft 434 kts 57°
2026-05-07 07:53 46.67566 17.87797 26996 ft 432 kts 57°
2026-05-07 07:54 46.69258 17.91412 26541 ft 430 kts 57°
2026-05-07 07:54 46.70941 17.95002 26075 ft 428 kts 57°
2026-05-07 07:54 46.72612 17.98574 25616 ft 426 kts 57°
2026-05-07 07:54 46.74282 18.02149 25125 ft 425 kts 57°
2026-05-07 07:55 46.75933 18.05690 24713 ft 421 kts 57°
2026-05-07 07:55 46.77554 18.09177 24393 ft 417 kts 57°
2026-05-07 07:55 46.79172 18.12669 24038 ft 414 kts 57°
2026-05-07 07:55 46.80779 18.16148 23671 ft 412 kts 57°
2026-05-07 07:56 46.82382 18.19618 23267 ft 409 kts 57°
2026-05-07 07:56 46.83967 18.23048 22794 ft 406 kts 57°
2026-05-07 07:56 46.85544 18.26463 22314 ft 403 kts 57°
2026-05-07 07:56 46.87091 18.29811 21858 ft 400 kts 57°
2026-05-07 07:57 46.88644 18.33177 21393 ft 397 kts 57°
2026-05-07 07:57 46.90177 18.36505 20758 ft 393 kts 57°
2026-05-07 07:57 46.91693 18.39810 20092 ft 389 kts 57°
2026-05-07 07:57 46.93197 18.43090 19456 ft 386 kts 57°
2026-05-07 07:58 46.94687 18.46342 18834 ft 383 kts 57°
2026-05-07 07:58 46.96163 18.49568 18238 ft 379 kts 57°
2026-05-07 07:58 46.97621 18.52753 17723 ft 371 kts 57°
2026-05-07 07:58 46.99169 18.55724 17289 ft 362 kts 47°
2026-05-07 07:59 47.01044 18.58103 16870 ft 361 kts 34°
2026-05-07 07:59 47.03177 18.60026 16437 ft 359 kts 30°
2026-05-07 07:59 47.05316 18.61912 16010 ft 358 kts 30°
2026-05-07 07:59 47.07453 18.63801 15569 ft 357 kts 31°
2026-05-07 08:00 47.09581 18.65691 15146 ft 357 kts 31°
2026-05-07 08:00 47.11703 18.67581 14726 ft 356 kts 31°
2026-05-07 08:00 47.13824 18.69477 14303 ft 355 kts 31°
2026-05-07 08:00 47.15884 18.71477 13871 ft 354 kts 40°
2026-05-07 08:01 47.17509 18.74110 13422 ft 352 kts 58°
2026-05-07 08:01 47.18570 18.77313 13007 ft 347 kts 75°
2026-05-07 08:01 47.18985 18.80762 12590 ft 340 kts 91°
2026-05-07 08:01 47.19015 18.84235 12187 ft 338 kts 92°
2026-05-07 08:02 47.19039 18.87683 11769 ft 336 kts 92°
2026-05-07 08:02 47.19067 18.91113 11364 ft 334 kts 91°
2026-05-07 08:02 47.19098 18.94530 10945 ft 333 kts 91°
2026-05-07 08:02 47.19221 18.97924 10568 ft 332 kts 82°
2026-05-07 08:03 47.19895 19.01066 10433 ft 322 kts 65°
2026-05-07 08:03 47.21083 19.03781 10058 ft 314 kts 48°
2026-05-07 08:03 47.22654 19.05989 9521 ft 311 kts 41°
2026-05-07 08:03 47.24262 19.08114 8973 ft 309 kts 41°
2026-05-07 08:04 47.25843 19.10216 8542 ft 302 kts 41°
2026-05-07 08:04 47.27393 19.12283 8152 ft 300 kts 41°
2026-05-07 08:04 47.28942 19.14348 7759 ft 301 kts 41°
2026-05-07 08:04 47.30469 19.16388 7570 ft 295 kts 41°
2026-05-07 08:05 47.31868 19.18537 7457 ft 287 kts 57°
2026-05-07 08:05 47.32493 19.21238 7326 ft 276 kts 89°
2026-05-07 08:05 47.32186 19.23981 7005 ft 272 kts 118°
2026-05-07 08:05 47.31080 19.26178 6689 ft 265 kts 137°
2026-05-07 08:06 47.29823 19.28174 6449 ft 264 kts 137°
2026-05-07 08:06 47.28582 19.30160 6150 ft 262 kts 136°
2026-05-07 08:06 47.27348 19.32138 5813 ft 260 kts 136°
2026-05-07 08:06 47.26142 19.34074 5377 ft 259 kts 136°
2026-05-07 08:07 47.24926 19.36031 4957 ft 258 kts 136°
2026-05-07 08:07 47.23848 19.38139 4518 ft 261 kts 117°
2026-05-07 08:07 47.23631 19.40796 4087 ft 266 kts 77°
2026-05-07 08:07 47.24444 19.43154 4022 ft 255 kts 45°
2026-05-07 08:08 47.25715 19.44911 4016 ft 250 kts 40°
2026-05-07 08:08 47.27000 19.46632 4017 ft 250 kts 40°
2026-05-07 08:08 47.28366 19.48184 3917 ft 245 kts 20°
2026-05-07 08:08 47.29961 19.48400 3809 ft 225 kts 339°
2026-05-07 08:09 47.31209 19.47212 3595 ft 208 kts 311°
2026-05-07 08:09 47.32171 19.45695 3357 ft 198 kts 308°
2026-05-07 08:09 47.33074 19.44227 3111 ft 193 kts 308°
2026-05-07 08:09 47.33977 19.42771 2876 ft 189 kts 308°
2026-05-07 08:10 47.34834 19.41396 2613 ft 175 kts 308°
2026-05-07 08:10 47.35627 19.40125 2396 ft 159 kts 308°
2026-05-07 08:10 47.36339 19.38984 2200 ft 143 kts 307°
2026-05-07 08:10 47.36995 19.37927 2004 ft 137 kts 307°
2026-05-07 08:11 47.37633 19.36899 1829 ft 135 kts 307°
2026-05-07 08:11 47.38265 19.35880 1647 ft 135 kts 307°
2026-05-07 08:11 47.38899 19.34858 1466 ft 134 kts 307°
2026-05-07 08:11 47.39528 19.33840 1269 ft 134 kts 307°
2026-05-07 08:12 47.40156 19.32830 1078 ft 133 kts 308°
2026-05-07 08:12 47.40784 19.31822 897 ft 134 kts 307°
2026-05-07 08:12 47.41413 19.30809 728 ft 133 kts 306°
2026-05-07 08:12 47.42040 19.29796 576 ft 134 kts 307°
2026-05-07 08:13 47.42668 19.28786 451 ft 127 kts 308°
2026-05-07 08:13 47.43171 19.27965 458 ft 89 kts 313°
2026-05-07 08:13 47.43521 19.27408 469 ft 61 kts 311°
2026-05-07 08:13 47.43662 19.27171 473 ft 22 kts 306°
2026-05-07 08:14 47.43728 19.26992 472 ft 19 kts 290°
2026-05-07 08:14 47.43758 19.26806 464 ft 17 kts 282°
2026-05-07 08:14 47.43781 19.26662 461 ft 12 kts 282°
2026-05-07 08:14 47.43803 19.26518 459 ft 11 kts 279°
2026-05-07 08:15 47.43762 19.26432 458 ft 13 kts 222°
2026-05-07 08:15 47.43685 19.26329 456 ft 17 kts 222°
2026-05-07 08:15 47.43593 19.26205 457 ft 14 kts 222°
2026-05-07 08:15 47.43527 19.26116 457 ft 11 kts 222°
2026-05-07 08:16 47.43509 19.26081 457 ft 3 kts 276°
2026-05-07 08:16 47.43527 19.26043 456 ft 6 kts 311°
2026-05-07 08:16 47.43545 19.26014 457 ft 1 kts 312°
2026-05-07 08:16 47.43546 19.26013 457 ft 0 kts 312°